| time (UTC) | temp F | wind direction | speed knots | gust knots | rain 1hr in | rain 24hr in | rain mn in | humidity % | barometer mb |
| 20260504213250 | 58 | 202 | 4.3 | 9.6 | 0.00 | 0.00 | 0.00 | 74 | 1011.4 |
| 20260504212744 | 58 | 234 | 4.3 | 9.6 | 0.00 | 0.00 | 0.00 | 74 | 1011.3 |
| 20260504212238 | 58 | 231 | 4.3 | 11.3 | 0.00 | 0.00 | 0.00 | 73 | 1011.2 |
| 20260504211734 | 58 | 236 | 3.5 | 13.9 | 0.00 | 0.00 | 0.00 | 73 | 1011.3 |
| 20260504211729 | 58 | 238 | 3.5 | 13.9 | 0.00 | 0.00 | 0.00 | 73 | 1011.2 |
| 20260504210721 | 59 | 178 | 4.3 | 10.4 | 0.00 | 0.00 | 0.00 | 72 | 1011.2 |
| 20260504210215 | 59 | 252 | 4.3 | 10.4 | 0.00 | 0.00 | 0.00 | 72 | 1011.2 |
| 20260504205709 | 59 | 209 | 4.3 | 10.4 | 0.00 | 0.00 | 0.00 | 71 | 1011.2 |
| 20260504205434 | 59 | 240 | 4.3 | 11.3 | 0.00 | 0.00 | 0.00 | 71 | 1011.2 |
| 20260504204703 | 59 | 277 | 5.2 | 11.3 | 0.00 | 0.00 | 0.00 | 70 | 1011.1 |
| 20260504204203 | 60 | 182 | 4.3 | 13.9 | 0.00 | 0.00 | 0.00 | 70 | 1011.2 |
| 20260504203703 | 60 | 215 | 4.3 | 13.9 | 0.00 | 0.00 | 0.00 | 70 | 1011.2 |
| 20260504203203 | 60 | 222 | 4.3 | 13.0 | 0.00 | 0.00 | 0.00 | 69 | 1011.2 |
| 20260504202701 | 60 | 252 | 5.2 | 13.0 | 0.00 | 0.00 | 0.00 | 69 | 1011.3 |
| 20260504202202 | 60 | 190 | 6.1 | 17.4 | 0.00 | 0.00 | 0.00 | 68 | 1011.3 |
| 20260504201700 | 61 | 146 | 5.2 | 17.4 | 0.00 | 0.00 | 0.00 | 67 | 1011.2 |
| 20260504201159 | 61 | 236 | 3.5 | 13.0 | 0.00 | 0.00 | 0.00 | 68 | 1011.3 |
| 20260504200705 | 61 | 212 | 6.1 | 13.9 | 0.00 | 0.00 | 0.00 | 68 | 1011.3 |
| 20260504200700 | 61 | 232 | 4.3 | 13.0 | 0.00 | 0.00 | 0.00 | 68 | 1011.2 |
| 20260504195657 | 61 | 162 | 6.1 | 13.9 | 0.00 | 0.00 | 0.00 | 67 | 1011.4 |
| 20260504195157 | 61 | 215 | 5.2 | 13.9 | 0.00 | 0.00 | 0.00 | 68 | 1011.5 |
| 20260504194657 | 61 | 160 | 5.2 | 14.8 | 0.00 | 0.00 | 0.00 | 67 | 1011.5 |
| 20260504194428 | 61 | 234 | 5.2 | 14.8 | 0.00 | 0.00 | 0.00 | 68 | 1011.5 |
| 20260504193657 | 61 | 171 | 5.2 | 13.0 | 0.00 | 0.00 | 0.00 | 68 | 1011.6 |
| 20260504193159 | 61 | 229 | 5.2 | 15.6 | 0.00 | 0.00 | 0.00 | 66 | 1011.7 |
| 20260504192700 | 62 | 234 | 4.3 | 15.6 | 0.00 | 0.00 | 0.00 | 67 | 1011.6 |
| 20260504192153 | 62 | 242 | 6.1 | 14.8 | 0.00 | 0.00 | 0.00 | 66 | 1011.6 |
| 20260504191648 | 62 | 288 | 5.2 | 14.8 | 0.00 | 0.00 | 0.00 | 67 | 1011.7 |
| 20260504191142 | 62 | 241 | 5.2 | 13.0 | 0.00 | 0.00 | 0.00 | 66 | 1011.7 |
| 20260504190636 | 62 | 204 | 4.3 | 13.0 | 0.00 | 0.00 | 0.00 | 65 | 1011.8 |
| 20260504190134 | 62 | 201 | 5.2 | 16.5 | 0.00 | 0.00 | 0.00 | 65 | 1011.9 |
| 20260504185634 | 62 | 180 | 5.2 | 17.4 | 0.00 | 0.00 | 0.00 | 66 | 1011.9 |
| 20260504185135 | 61 | 198 | 5.2 | 17.4 | 0.00 | 0.00 | 0.00 | 67 | 1012.0 |
| 20260504184635 | 61 | 213 | 5.2 | 13.9 | 0.00 | 0.00 | 0.00 | 66 | 1012.1 |
| 20260504184134 | 62 | 249 | 5.2 | 13.9 | 0.00 | 0.00 | 0.00 | 66 | 1012.1 |
| 20260504183635 | 62 | 193 | 5.2 | 13.9 | 0.00 | 0.00 | 0.00 | 66 | 1012.2 |
| 20260504183409 | 63 | 219 | 4.3 | 12.2 | 0.00 | 0.00 | 0.00 | 65 | 1012.2 |
| 20260504183133 | 62 | 225 | 4.3 | 13.9 | 0.00 | 0.00 | 0.00 | 65 | 1012.2 |
| 20260504182134 | 63 | 195 | 4.3 | 11.3 | 0.00 | 0.00 | 0.00 | 64 | 1012.2 |
| 20260504181634 | 64 | 204 | 4.3 | 22.6 | 0.00 | 0.00 | 0.00 | 65 | 1012.3 |
| 20260504181133 | 63 | 209 | 4.3 | 22.6 | 0.00 | 0.00 | 0.00 | 65 | 1012.3 |
| 20260504180634 | 62 | 257 | 5.2 | 13.0 | 0.00 | 0.00 | 0.00 | 65 | 1012.4 |
| 20260504180134 | 62 | 153 | 5.2 | 15.6 | 0.00 | 0.00 | 0.00 | 66 | 1012.4 |
| 20260504175635 | 63 | 223 | 5.2 | 15.6 | 0.00 | 0.00 | 0.00 | 65 | 1012.4 |
| 20260504175135 | 63 | 238 | 5.2 | 14.8 | 0.00 | 0.00 | 0.00 | 65 | 1012.4 |
| 20260504174636 | 63 | 265 | 5.2 | 14.8 | 0.00 | 0.00 | 0.00 | 66 | 1012.4 |
| 20260504174130 | 63 | 217 | 4.3 | 14.8 | 0.00 | 0.00 | 0.00 | 65 | 1012.5 |
| 20260504173624 | 63 | 223 | 4.3 | 13.0 | 0.00 | 0.00 | 0.00 | 65 | 1012.5 |
| 20260504173349 | 62 | 234 | 5.2 | 13.9 | 0.00 | 0.00 | 0.00 | 68 | 1012.6 |
| 20260504172612 | 62 | 224 | 5.2 | 13.9 | 0.00 | 0.00 | 0.00 | 66 | 1012.7 |
| 20260504172106 | 62 | 212 | 4.3 | 16.5 | 0.00 | 0.00 | 0.00 | 67 | 1012.7 |
| 20260504171600 | 62 | 210 | 4.3 | 16.5 | 0.00 | 0.00 | 0.00 | 67 | 1012.8 |
| 20260504171054 | 61 | 209 | 5.2 | 13.0 | 0.00 | 0.00 | 0.00 | 69 | 1013.0 |
| 20260504170819 | 62 | 223 | 4.3 | 13.0 | 0.00 | 0.00 | 0.00 | 66 | 1013.1 |
| 20260504160436 | 64 | 225 | 4.3 | 13.9 | 0.00 | 0.00 | 0.00 | 62 | 1013.5 |
| 20260504151101 | 64 | 221 | 3.5 | 9.6 | 0.00 | 0.00 | 0.00 | 54 | 1014.0 |
| 20260504150324 | 65 | 238 | 3.5 | 8.7 | 0.00 | 0.00 | 0.00 | 55 | 1014.0 |
| 20260504141224 | 62 | 236 | 3.5 | 9.6 | 0.00 | 0.00 | 0.00 | 58 | 1014.1 |
| 20260504140718 | 63 | 291 | 3.5 | 9.6 | 0.00 | 0.00 | 0.00 | 58 | 1014.1 |
| 20260504140442 | 62 | 193 | 4.3 | 9.6 | 0.00 | 0.00 | 0.00 | 59 | 1014.2 |
| 20260504130605 | 60 | 237 | 3.5 | 12.2 | 0.00 | 0.00 | 0.00 | 62 | 1014.6 |
| 20260504110520 | 49 | 207 | 1.7 | 5.2 | 0.00 | 0.00 | 0.00 | 76 | 1014.7 |
| 20260504100408 | 47 | 271 | 1.7 | 5.2 | 0.00 | 0.00 | 0.00 | 74 | 1014.4 |
| 20260504081549 | 46 | 244 | 1.7 | 3.5 | 0.00 | 0.00 | 0.00 | 71 | 1013.8 |
| 20260504081049 | 46 | 248 | 1.7 | 3.5 | 0.00 | 0.00 | 0.00 | 70 | 1013.8 |
| 20260504080319 | 46 | 255 | 1.7 | 3.5 | 0.00 | 0.00 | 0.00 | 70 | 1013.8 |
| 20260504060240 | 47 | 234 | 1.7 | 4.3 | 0.00 | 0.00 | 0.00 | 75 | 1013.2 |
| 20260504050700 | 45 | 273 | 1.7 | 5.2 | 0.00 | 0.00 | 0.00 | 75 | 1012.9 |
| 20260504050200 | 44 | 274 | 0.9 | 5.2 | 0.00 | 0.00 | 0.00 | 74 | 1012.9 |
| 20260504045930 | 44 | 262 | 0.9 | 5.2 | 0.00 | 0.00 | 0.00 | 74 | 1013.0 |
| 20260504045158 | 44 | 263 | 0.9 | 2.6 | 0.00 | 0.00 | 0.00 | 74 | 1012.9 |
| 20260504044658 | 44 | 265 | 0.9 | 3.5 | 0.00 | 0.00 | 0.00 | 73 | 1013.0 |
| 20260504044155 | 44 | 265 | 0.9 | 7.0 | 0.00 | 0.00 | 0.00 | 73 | 1013.1 |
| 20260504043657 | 44 | 264 | 0.9 | 7.0 | 0.00 | 0.00 | 0.00 | 72 | 1013.0 |
| 20260504043427 | 44 | 237 | 0.9 | 2.6 | 0.00 | 0.00 | 0.00 | 72 | 1013.1 |
| 20260504042657 | 44 | 237 | 0.9 | 2.6 | 0.00 | 0.00 | 0.00 | 72 | 1013.1 |
| 20260504042157 | 44 | 237 | 0.9 | 2.6 | 0.00 | 0.00 | 0.00 | 71 | 1013.0 |
| 20260504041925 | 44 | 236 | 0.0 | 1.7 | 0.00 | 0.00 | 0.00 | 70 | 1012.9 |
| 20260504041425 | 44 | 236 | 0.0 | 1.7 | 0.00 | 0.00 | 0.00 | 70 | 1012.9 |
| 20260504040651 | 44 | 236 | 0.0 | 0.0 | 0.00 | 0.00 | 0.00 | 69 | 1012.9 |
| 20260504040148 | 44 | 236 | 0.0 | 0.9 | 0.00 | 0.00 | 0.00 | 68 | 1012.9 |
| 20260504035649 | 44 | 236 | 0.0 | 0.9 | 0.00 | 0.00 | 0.00 | 68 | 1012.9 |
| 20260504035143 | 44 | 235 | 0.0 | 1.7 | 0.00 | 0.00 | 0.00 | 68 | 1012.9 |
| 20260504034636 | 44 | 235 | 0.0 | 2.6 | 0.00 | 0.00 | 0.00 | 67 | 1012.8 |
| 20260504034131 | 44 | 235 | 0.0 | 2.6 | 0.00 | 0.00 | 0.00 | 66 | 1012.8 |
| 20260504033625 | 44 | 235 | 0.0 | 0.9 | 0.00 | 0.00 | 0.00 | 65 | 1012.8 |
| 20260504033118 | 44 | 235 | 0.0 | 0.9 | 0.00 | 0.00 | 0.00 | 65 | 1012.8 |
| 20260504032843 | 44 | 235 | 0.0 | 0.9 | 0.00 | 0.00 | 0.00 | 63 | 1012.7 |
| 20260504032338 | 44 | 235 | 0.0 | 0.9 | 0.00 | 0.00 | 0.00 | 61 | 1012.8 |
| 20260504031601 | 44 | 235 | 0.0 | 0.9 | 0.00 | 0.00 | 0.00 | 61 | 1012.7 |
| 20260504031054 | 44 | 235 | 0.0 | 0.9 | 0.00 | 0.00 | 0.00 | 59 | 1012.7 |
| 20260504030819 | 44 | 235 | 0.0 | 0.9 | 0.00 | 0.00 | 0.00 | 58 | 1012.7 |
| 20260504030043 | 44 | 235 | 0.0 | 0.9 | 0.00 | 0.00 | 0.00 | 55 | 1012.7 |
| 20260504025537 | 45 | 235 | 0.0 | 0.9 | 0.00 | 0.00 | 0.00 | 54 | 1012.6 |
| 20260504025030 | 45 | 235 | 0.0 | 0.9 | 0.00 | 0.00 | 0.00 | 53 | 1012.7 |
| 20260504024757 | 45 | 235 | 0.0 | 0.0 | 0.00 | 0.00 | 0.00 | 52 | 1012.7 |
| 20260504024018 | 45 | 235 | 0.0 | 0.9 | 0.00 | 0.00 | 0.00 | 51 | 1012.8 |
| 20260504023512 | 45 | 235 | 0.0 | 0.9 | 0.00 | 0.00 | 0.00 | 50 | 1012.7 |
| 20260504023006 | 46 | 235 | 0.0 | 0.0 | 0.00 | 0.00 | 0.00 | 49 | 1012.7 |
| 20260504022501 | 46 | 235 | 0.0 | 0.0 | 0.00 | 0.00 | 0.00 | 49 | 1012.7 |
| 20260504021954 | 46 | 235 | 0.0 | 0.0 | 0.00 | 0.00 | 0.00 | 49 | 1012.6 |
| 20260504021720 | 46 | 235 | 0.0 | 0.0 | 0.00 | 0.00 | 0.00 | 48 | 1012.5 |
| 20260504020942 | 47 | 235 | 0.0 | 0.0 | 0.00 | 0.00 | 0.00 | 48 | 1012.6 |
| 20260504020437 | 47 | 235 | 0.0 | 0.0 | 0.00 | 0.00 | 0.00 | 48 | 1012.5 |
| 20260504020158 | 47 | 235 | 0.0 | 0.0 | 0.00 | 0.00 | 0.00 | 47 | 1012.5 |
| 20260504020032 | 47 | 235 | 0.0 | 0.0 | 0.00 | 0.00 | 0.00 | 47 | 1012.6 |
| 20260504014919 | 48 | 235 | 0.0 | 0.0 | 0.00 | 0.00 | 0.00 | 46 | 1012.5 |
| 20260504014412 | 48 | 235 | 0.0 | 0.0 | 0.00 | 0.00 | 0.00 | 46 | 1012.5 |
| 20260504013906 | 49 | 235 | 0.0 | 0.0 | 0.00 | 0.00 | 0.00 | 45 | 1012.4 |
| 20260504013401 | 49 | 235 | 0.0 | 0.0 | 0.00 | 0.00 | 0.00 | 45 | 1012.4 |
| 20260504012854 | 49 | 235 | 0.0 | 0.0 | 0.00 | 0.00 | 0.00 | 44 | 1012.4 |
| 20260504012349 | 50 | 235 | 0.0 | 0.0 | 0.00 | 0.00 | 0.00 | 44 | 1012.3 |
| 20260504012113 | 50 | 235 | 0.0 | 0.0 | 0.00 | 0.00 | 0.00 | 44 | 1012.2 |
| 20260504011337 | 50 | 235 | 0.0 | 0.0 | 0.00 | 0.00 | 0.00 | 44 | 1012.2 |
| 20260504010831 | 51 | 235 | 0.0 | 0.0 | 0.00 | 0.00 | 0.00 | 43 | 1012.1 |
| 20260504010556 | 51 | 235 | 0.0 | 0.0 | 0.00 | 0.00 | 0.00 | 41 | 1012.0 |
| 20260504005818 | 51 | 235 | 0.0 | 0.0 | 0.00 | 0.00 | 0.00 | 40 | 1012.0 |
| 20260504005313 | 51 | 235 | 0.0 | 0.0 | 0.00 | 0.00 | 0.00 | 39 | 1011.9 |
| 20260504004807 | 52 | 235 | 0.0 | 0.0 | 0.00 | 0.00 | 0.00 | 39 | 1011.8 |
| 20260504004300 | 52 | 235 | 0.0 | 0.0 | 0.00 | 0.00 | 0.00 | 38 | 1011.8 |
| 20260504003755 | 53 | 235 | 0.0 | 0.0 | 0.00 | 0.00 | 0.00 | 38 | 1011.7 |
| 20260504003520 | 53 | 235 | 0.0 | 0.0 | 0.00 | 0.00 | 0.00 | 38 | 1011.6 |
| 20260504002744 | 53 | 235 | 0.0 | 0.0 | 0.00 | 0.00 | 0.00 | 38 | 1011.5 |
| 20260504002739 | 53 | 235 | 0.0 | 0.0 | 0.00 | 0.00 | 0.00 | 37 | 1011.5 |
| 20260504001731 | 54 | 235 | 0.0 | 0.9 | 0.00 | 0.00 | 0.00 | 37 | 1011.4 |
| 20260504001225 | 54 | 235 | 0.9 | 0.9 | 0.00 | 0.00 | 0.00 | 37 | 1011.4 |
| 20260504000718 | 55 | 235 | 0.9 | 3.5 | 0.00 | 0.00 | 0.00 | 37 | 1011.2 |
| 20260504000443 | 55 | 235 | 0.9 | 3.5 | 0.00 | 0.00 | 0.00 | 37 | 1011.2 |
| 20260503235938 | 55 | 234 | 0.9 | 2.6 | 0.00 | 0.00 | 0.00 | 36 | 1011.1 |
| 20260503235201 | 56 | 234 | 0.9 | 2.6 | 0.00 | 0.00 | 0.00 | 36 | 1011.1 |
| 20260503234655 | 56 | 234 | 0.9 | 2.6 | 0.00 | 0.00 | 0.00 | 35 | 1011.0 |
| 20260503234149 | 56 | 234 | 0.9 | 3.5 | 0.00 | 0.00 | 0.00 | 36 | 1010.9 |
| 20260503233642 | 56 | 232 | 1.7 | 3.5 | 0.00 | 0.00 | 0.00 | 35 | 1010.9 |
| 20260503233133 | 56 | 227 | 1.7 | 4.3 | 0.00 | 0.00 | 0.00 | 33 | 1010.8 |
| 20260503232629 | 57 | 226 | 1.7 | 9.6 | 0.00 | 0.00 | 0.00 | 32 | 1010.7 |
| 20260503232403 | 57 | 254 | 1.7 | 9.6 | 0.00 | 0.00 | 0.00 | 33 | 1010.7 |
| 20260503231900 | 57 | 243 | 1.7 | 4.3 | 0.00 | 0.00 | 0.00 | 34 | 1010.7 |
| 20260503231125 | 58 | 266 | 1.7 | 7.0 | 0.00 | 0.00 | 0.00 | 34 | 1010.7 |
| 20260503230625 | 58 | 269 | 1.7 | 7.0 | 0.00 | 0.00 | 0.00 | 33 | 1010.7 |
| 20260503230126 | 58 | 243 | 1.7 | 7.8 | 0.00 | 0.00 | 0.00 | 32 | 1010.5 |
| 20260503225627 | 58 | 240 | 2.6 | 7.8 | 0.00 | 0.00 | 0.00 | 31 | 1010.6 |
| 20260503225356 | 58 | 302 | 2.6 | 7.8 | 0.00 | 0.00 | 0.00 | 30 | 1010.5 |
| 20260503224626 | 58 | 259 | 2.6 | 8.7 | 0.00 | 0.00 | 0.00 | 30 | 1010.5 |
| 20260503224126 | 58 | 277 | 2.6 | 8.7 | 0.00 | 0.00 | 0.00 | 31 | 1010.4 |
| 20260503223627 | 58 | 279 | 2.6 | 8.7 | 0.00 | 0.00 | 0.00 | 32 | 1010.5 |
| 20260503223125 | 58 | 265 | 1.7 | 7.0 | 0.00 | 0.00 | 0.00 | 32 | 1010.4 |
| 20260503222624 | 58 | 277 | 1.7 | 5.2 | 0.00 | 0.00 | 0.00 | 32 | 1010.4 |
| 20260503222124 | 58 | 355 | 1.7 | 6.1 | 0.00 | 0.00 | 0.00 | 32 | 1010.3 |
| 20260503221625 | 58 | 331 | 1.7 | 6.1 | 0.00 | 0.00 | 0.00 | 32 | 1010.3 |
| 20260503221122 | 58 | 305 | 1.7 | 4.3 | 0.00 | 0.00 | 0.00 | 31 | 1010.3 |
| 20260503220622 | 58 | 17 | 1.7 | 4.3 | 0.00 | 0.00 | 0.00 | 32 | 1010.3 |
| 20260503220116 | 58 | 21 | 2.6 | 7.8 | 0.00 | 0.00 | 0.00 | 31 | 1010.3 |
| 20260503215611 | 58 | 243 | 2.6 | 7.8 | 0.00 | 0.00 | 0.00 | 31 | 1010.3 |
| 20260503215105 | 58 | 294 | 1.7 | 7.0 | 0.00 | 0.00 | 0.00 | 32 | 1010.3 |
| 20260503214558 | 59 | 339 | 2.6 | 7.0 | 0.00 | 0.00 | 0.00 | 32 | 1010.2 |
| 20260503214053 | 59 | 277 | 2.6 | 7.8 | 0.00 | 0.00 | 0.00 | 32 | 1010.2 |
| 20260503213547 | 59 | 26 | 2.6 | 13.9 | 0.00 | 0.00 | 0.00 | 32 | 1010.2 |